Regional Weather Roundup
Issued by NWS

Home | Current Version | Previous Version | Graphics & Text | Print | Product List | Glossary On
Versions: 1 2 3 4 5 6 7 8 9 10 11 12 13 14 15 16 17 18 19 20 21 22 23 24 25 26 27 28 29 30 31 32 33 34 35 36 37 38 39 40 41 42 43 44 45 46 47 48 49 50
000
ASUS43 KBIS 031110
RWRND

NORTH DAKOTA REGIONAL WEATHER ROUNDUP
NATIONAL WEATHER SERVICE BISMARCK ND
600 AM CDT SUN MAY 03 2015

NOTE: "FAIR" INDICATES FEW OR NO CLOUDS BELOW 12,000 FEET WITH NO
SIGNIFICANT WEATHER AND/OR OBSTRUCTIONS TO VISIBILITY.


NDZ001>003-009>011-017-031200-
NORTHWEST NORTH DAKOTA

CITY           SKY/WX    TMP DP  RH WIND       PRES   REMARKS
WILLISTON      PTCLDY    40  32  73 CALM      29.94R
MINOT          LGT RAIN  48  36  63 W13       29.88R
MINOT AFB      MOCLDY    47  37  69 NW14      29.88R
$$

NDZ018>021-031>035-040>046-031200-
SOUTHWEST NORTH DAKOTA

CITY           SKY/WX    TMP DP  RH WIND       PRES   REMARKS
BISMARCK       LGT RAIN  53  40  61 NW14      29.88R
DICKINSON      CLOUDY    49  36  61 NW5       29.93R
GARRISON         N/A     49  38  65 NW14      29.90R
HETTINGER ARPT MOCLDY    49  36  61 N12       29.91R
$$

NDZ004>008-012>016-024-026-027-054-031200-
NORTHEAST NORTH DAKOTA

CITY           SKY/WX    TMP DP  RH WIND       PRES   REMARKS
GRAND FORKS    PTCLDY    46  40  79 NW8       29.75R
GRND FRKS AFB  PTCLDY    49  39  69 NW10      29.75R
DEVILS LAKE    MOCLDY    48  37  66 NW10      29.80R
$$

NDZ022-023-025-028>030-036>039-047>053-031200-
SOUTHEAST NORTH DAKOTA

CITY           SKY/WX    TMP DP  RH WIND       PRES   REMARKS
FARGO          CLEAR     50  41  71 N13       29.73R
JAMESTOWN      MOCLDY    52  37  56 NW13      29.79R
$$




USA.gov is the U.S. government's official web portal to all federal, state and local government web resources and services.